COSMOS 2475 (743)

Last updated on Wed Mar 04 2026 00:03:22 GMT+0000 (Coordinated Universal Time)

1 37869U 11064C 26062.32646874 .00000024 00000+0 00000+0 0 9995 2 37869 65.2220 76.5435 0028097 254.3538 193.3549 2.13101445111512
UTC large
Height (km)
Speed (km/s)
/
Latitude / Longitude
Inclination (degrees)
Orbital Period (minutes)
Azimuth
Elevation
Range (km)
Doppler Factor

Next 0 passes for location: London (51.5072 / 0.1276)

Sorry there are no passes over London.